Preview of NWS' New Version of Forecast
This preview is not operational and should not be used for support decisions.
Latest weather observations around

Santa Ana, John Wayne Airport-Orange County Airport (KSNA)

Using English Units (Switch to International System of Units)
Date/ Time (PDT) Wind (mph) Vis. (mi) Weather Sky Cond. Temp (°F) Rel. Humidity Wind Chill (°F) Heat Index (°F) Pressure Precip. (in)
Air Dwpt 6 hour Altimeter (inHg) Sea level (inHg) 1 hr 3 hr 6 hr
Max Min
Apr 20 18:53 SW 8 10 Mostly Cloudy FEW022 BKN028 60 49     67%     29.97 29.97      
Apr 20 17:53 SW 10 10 Mostly Cloudy FEW025 BKN028 BKN031 61 49     64%     29.97 29.97      
Apr 20 17:29 SW 11 10 Mostly Cloudy FEW025 BKN028 BKN031 62 49     62%     29.97        
Apr 20 16:53 SSW 11 10 Mostly Cloudy SCT028 BKN031 BKN180 63 49     60%     29.97 29.97      
Apr 20 15:53 S 8 10 Mostly Cloudy FEW026 BKN032 BKN055 BKN180 65 50     58%     29.97 29.97      
Apr 20 15:49 SW 8 10 Mostly Cloudy FEW026 BKN032 BKN055 BKN180 64 50     60%     29.97        
Apr 20 15:05 WSW 7 10 Mostly Cloudy SCT024 BKN029 BKN038 63 50     63%     29.99        
Apr 20 14:53 SW 10 10 Mostly Cloudy SCT028 BKN038 64 50     60%     29.99 29.99      
Apr 20 13:53 S 10 10 Mostly Cloudy FEW023 BKN039 65 49     56%     30 30      
Apr 20 12:53   10 Mostly Cloudy FEW025 BKN039 64 49     58%     30.01 30.01      
Apr 20 12:26 SSW 8 10 Cloudy SCT023 OVC038 63 48     58%     30.02        
Apr 20 11:53 WSW 7 10 Cloudy BKN022 OVC036 61 49     64%     30.02 30.02      
Apr 20 11:00 SW 9 10 Cloudy FEW020 OVC031 61 50     67%     30.02        
Apr 20 10:53 SW 8 10 Cloudy OVC028 61 50     67%     30.01 30.01      
Apr 20 09:53 5 10 Cloudy OVC029 61 50     67%     29.99 29.99      
Apr 20 08:53 Calm 10 Cloudy FEW018 OVC028 60 50     69%     29.98 29.98      
Apr 20 07:53 5 10 Cloudy OVC028 59 50     72%     29.96 29.96      
Apr 20 06:53 3 10 Cloudy BKN016 OVC025 58 50     75%     29.95 29.95      
Apr 20 06:19 S 3 10 Cloudy BKN016 OVC022 58 50     75%     29.94        
Apr 20 05:53 Calm 10 Cloudy OVC013 58 50     75%     29.93 29.93      
Apr 20 05:18 Calm 10 Cloudy BKN014 OVC025 58 50     75%     29.92        
Apr 20 04:53 WSW 5 10 Cloudy OVC025 57 50     77%     29.93 29.93      
Apr 20 03:53 W 6 10 Cloudy OVC022 58 50     75%     29.95 29.95      
Apr 20 02:53 WSW 5 10 Cloudy OVC021 58 50     75%     29.95 29.94      
Apr 20 01:53 W 6 10 Cloudy OVC019 59 50     72%     29.96 29.96      
Apr 20 01:19 WSW 3 10 Cloudy OVC015 59 51     75%     29.96        
Apr 20 00:53 W 5 10 Cloudy OVC012 59 51     75%     29.96 29.96      
Apr 19 23:53 SW 6 10 Cloudy OVC011 59 52     78%     29.95 29.94      
Apr 19 22:53 WSW 6 8 Cloudy OVC010 58 52     81%     29.94 29.94      
Apr 19 21:53 6 9 Mostly Cloudy BKN010 58 52     81%     29.93 29.93      
Apr 19 20:56 S 3 10 Mostly Cloudy BKN011 58 52     81%     29.93        
Apr 19 20:53 SSW 5 10 Partly Cloudy SCT011 58 52     81%     29.93 29.93      
Apr 19 19:53 5 10 Mostly Clear FEW010 FEW150 59 51     75%     29.92 29.91      
Apr 19 18:53 SW 9 10 Mostly Clear FEW011 FEW170 62 52     70%     29.9 29.9      
Apr 19 17:53 5 10 Mostly Clear FEW011 FEW170 FEW200 63 52     67%     29.9 29.9      
Apr 19 16:53 SW 9 10 Mostly Clear FEW010 FEW180 64 52     65%     29.9 29.9      
Apr 19 15:53 WSW 7 10 Partly Cloudy FEW010 FEW060 SCT180 66 53     63%     29.9 29.9      
Apr 19 14:53 SW 9 9 Mostly Clear FEW010 FEW060 FEW180 68 54     61%     29.92 29.92      
Apr 19 13:53 WSW 9 10 Partly Cloudy FEW010 FEW170 SCT290 66 54     65%     29.93 29.93      
Apr 19 12:53 SW 5 7 Partly Cloudy FEW100 SCT170 69 55     61%     29.92 29.92      
Apr 19 11:53 SW 6 7 Mostly Cloudy FEW090 SCT160 BKN180 65 54     68%     29.96 29.95      
Apr 19 11:22 6 6 Haze FEW011 SCT090 BKN140 64 54     70%     29.96        
Apr 19 10:53 SSW 8 8 Mostly Cloudy BKN010 BKN140 BKN200 63 54     72%     29.97 29.97      
Apr 19 09:53 SSW 11 8 Partly Cloudy FEW008 SCT150 SCT190 64 54     70%     29.96 29.96      
Apr 19 08:53 S 6 6 Fog/Mist FEW007 SCT150 BKN190 64 55     73%     29.97 29.96      
Apr 19 07:53 Calm 4 Fog/Mist FEW007 FEW010 SCT160 SCT210 61 54     78%     29.97 29.97      
Apr 19 07:39 Calm 4 Fog/Mist FEW008 SCT010 SCT160 61 54     78%     29.97        
Apr 19 06:53 SW 3 4 Fog/Mist BKN008 OVC011 58 54     87%     29.96 29.96      
Apr 19 05:53 Calm 4 Fog/Mist OVC008 59 54     83%     29.96 29.96      
Apr 19 04:53 SW 5 8 Cloudy OVC008 59 54     83%     29.98 29.97      
Apr 19 03:53 Calm 8 Cloudy OVC006 58 54     87%     29.99 29.99      
Apr 19 02:53 Calm 8 Cloudy OVC006 58 54     87%     30.01 30      
Apr 19 01:53 SW 5 9 Cloudy OVC005 58 54     87%     30.03 30.03      
Apr 19 01:15 SSW 6 9 Cloudy OVC005 59 55     87%     30.05        
Apr 19 00:53 SW 7 8 Cloudy OVC004 59 55     87%     30.06 30.05      
Apr 19 00:15 SW 9 3 Fog/Mist OVC002 59 56     90%     30.06        
Apr 18 23:53 SSW 7 2.5 Fog/Mist OVC002 58 56     93%     30.04 30.04      
Apr 18 23:51 SSW 6 2.5 Fog/Mist OVC002 57 55     94%     30.05        
Apr 18 23:08 SW 9 1.75 Fog/Mist OVC002 59 55     87%     30.03        
Apr 18 22:53 SW 9 0.75 Fog/Mist BKN003 59 56     90%     30.03 30.02      
Apr 18 22:49 SW 8 2 Fog/Mist BKN003 59 55     88%     30.03        
Apr 18 21:53 SSW 7 9 Mostly Clear FEW007 FEW210 61 56     83%     30.03 30.03      
Apr 18 20:53 SSW 6 10 Clear CLR 63 54     72%     30.03 30.02      
Apr 18 19:53 W 3 10 Mostly Clear FEW250 66 54     65%     30.01 30.01      
Apr 18 18:53 SW 7 10 Mostly Clear FEW250 69 53     57%     30 29.99      
Apr 18 17:53 SW 8 10 Mostly Clear FEW250 73 51     46%   72 29.99 29.99      
Apr 18 16:53 SW 7 10 Clear CLR 73 52     48%   72 30 30      
Apr 18 15:53 5 10 Mostly Clear FEW250 77 52     42%   76 30.01 30.01      
Apr 18 14:53 SW 8 10 Mostly Clear FEW250 77 52     42%   76 30.04 30.03      
Apr 18 13:53 SW 7 10 Partly Cloudy SCT250 75 51     43%   74 30.06 30.05      
Apr 18 12:53 WSW 8 10 Partly Cloudy SCT250 75 50     41%   74 30.07 30.07      
Apr 18 11:53 SW 10 10 Mostly Cloudy BKN250 74 52     46%   73 30.09 30.08      
Apr 18 10:53 SSW 8 10 Mostly Cloudy BKN250 75 52     45%   74 30.09 30.08      
Apr 18 09:53 Calm 10 Mostly Cloudy BKN250 71 50     47%   70 30.09 30.09      
Apr 18 08:53 Calm 10 Mostly Cloudy BKN250 66 49     54%     30.1 30.1      
Apr 18 07:53 Calm 10 Mostly Cloudy BKN250 61 48     62%     30.11 30.1      
Apr 18 06:53 ENE 5 10 Mostly Cloudy BKN250 57 47     69%     30.09 30.09      
Apr 18 05:53 Calm 10 Partly Cloudy SCT250 58 48     70%     30.09 30.09      
Apr 18 04:53 Calm 10 Clear CLR 57 48     72%     30.09 30.08      
Apr 18 03:53 Calm 10 Clear CLR 58 47     67%     30.08 30.08      
Apr 18 02:53 E 3 10 Clear CLR 58 47     67%     30.09 30.09      
Apr 18 01:53 Calm 10 Clear CLR 60 49     67%     30.12 30.11      
Apr 18 00:53 S 6 10 Clear CLR 59 48     67%     30.11 30.11      
Apr 17 23:53 Calm 10 Clear CLR 62 48     60%     30.1 30.1      
Apr 17 22:53 Calm 10 Partly Cloudy SCT250 64 48     56%     30.09 30.08      
Apr 17 21:53 SE 5 10 Clear CLR 64 47     54%     30.1 30.1      
Apr 17 20:53 N 3 10 Clear CLR 65 48     54%     30.11 30.11      
Apr 17 19:53 W 7 10 Mostly Clear FEW012 FEW250 64 48     56%     30.11 30.11      
May 14 17:53 W 8 10 Clear CLR 65 52     63%     29.94 29.94      
May 14 15:53 SW 9 10 Mostly Clear FEW029 67 51     57%     29.96 29.96      
May 14 08:53 3 10 Partly Cloudy SCT017 63 52     67%     29.99 29.99      
May 13 20:53 W 7 10 Clear CLR 61 54     78%     29.98 29.98      
May 13 14:53 SW 10 10 Partly Cloudy SCT044 69 50     51%     29.98 29.98      
May 12 18:53 S 10 10 Mostly Cloudy FEW043 BKN050 62 52     70%     29.96 29.96      
May 12 04:53 SE 3 8 Light Rain SCT013 BKN018 OVC025 57 55     93%     29.91 29.91 0   0
May 11 23:28 5 10 Cloudy BKN010 BKN015 OVC027 59 57     93%     29.9        
May 11 21:53 SE 8 8 Cloudy SCT013 BKN018 OVC036 60 56     86%     29.87 29.87      
May 11 18:53 SE 9 9 Cloudy FEW011 SCT022 OVC026 60 55     83%     29.82 29.82      
May 11 17:53 SSE 13 10 Cloudy SCT020 BKN024 OVC031 61 54     78%     29.83 29.82      
May 11 09:53 SSE 16 9 Cloudy SCT027 OVC030 65 52     63%     29.87 29.87      
Jun 11 23:53 W 7 10 Cloudy OVC037 63 53     70%     29.99 29.98      
Jun 11 19:53 S 8 10 Partly Cloudy FEW023 SCT028 SCT035 64 54     70%     29.93 29.93      
Jun 11 14:53 SSW 18 10 Partly Cloudy FEW033 SCT038 71 53     53%   70 29.92 29.91      
Jun 11 12:53 SSE 10 10 Mostly Cloudy SCT028 BKN036 69 53     57%     29.92 29.92      
Jun 11 07:53 ESE 8 10 Cloudy BKN022 BKN030 OVC035 62 56     80%     29.89 29.89      
Jun 08 14:53 W 9 9 Mostly Clear FEW027 FEW250 72 58     61%   72 29.98 29.97      
Jun 07 22:53 3 7 Cloudy FEW013 OVC015 63 57     81%     29.98 29.98      
Jun 07 19:53 SSW 9 8 Cloudy SCT013 OVC016 63 57     81%     29.96 29.96      
Jun 07 08:59 SW 5 4 Fog/Mist SCT007 BKN010 OVC014 62 60     93%     29.95        
Jun 06 12:53 SW 7 10 Cloudy OVC013 66 59     78%     29.95 29.95      
Jun 06 00:53 S 5 10 Cloudy OVC012 63 58     84%     29.9 29.89